Location: Erp
(42.9417°N, 1.2009°E)
Time: 09:36:02
(UTC+00:00)

Cosmos 1452 Rocket - Pass Details

Date: 12 January 2026
Orbit: 762 x 771 km, 74.1° (Epoch: 18 February)

Event Time Altitude Azimuth Distance (km) Brightness Sun altitude
Rises 19:08:55 0° 213° (SSW) 3,218 7.3 -26.2°
Reaches altitude 10° 19:11:20 10° 219° (SW) 2,298 6.5 -26.6°
Maximum altitude 19:16:24 50° 294° (WNW) 971 4.2 -27.6°
Enters shadow 19:18:25 33° 350° (N) 1,281 4.6 -27.9°
